Starlink 2578

operational
NORAD ID: 48362 Int'l Des: 2021-038 Owner: SPXS Country: US Constellation: starlink
LEOCIRCULARSTARLINK_TYPE

Starlink 2578について

説明を読み込み中...

リアルタイム位置

3D地球を読み込み中...

次回通過

高度履歴

Altitude vs Time

uPlot chart will show altitude changes over time

軌道要素

1 48362U 21038K 25297.86013789 .00000270 00000-0 37026-4 0 9995
2 48362 53.0557 251.4662 0001666 91.3011 268.8169 15.06402347246554
Epoch: Oct 24, 2025 • Age: 7 hours

現在のステータス

高度 547.9 km
速度 7.59 km/s
衛星直下点 27.44°N, 168.18°W
打ち上げ日 May 4, 2021
運用期間 4.4 years
タイプ internet

技術仕様

分類 Payload
質量 260.00 kg
乾燥質量 248.00 kg
総質量 260.00 kg
長さ 0.20 m
直径 2.80 m
スパン 9.00 m
形状 Box + pan
製造者 SPXS
バスタイプ Starlink
フェーズステータス In Orbit
所有者/国 SPXS/US

大規模コンステレーション

Loading constellations...